Location: Holyhead Bay
(53.3667°N, 4.6667°W)
Time: 00:29:30
(UTC+00:00)

ADEOS Rocket - Pass Details

Date: 19 April 2021
Orbit: 859 x 1306 km, 98.7° (Epoch: 15 May)

Event Time Altitude Azimuth Distance (km) Brightness Sun altitude
Rises 00:30:12 0° 102° (ESE) 3,840 6.0 -25.4°
Reaches altitude 10° 00:33:21 10° 86° (E) 2,965 5.6 -25.4°
Maximum altitude 00:37:59 20° 43° (NE) 2,403 5.6 -25.3°
Drops below altitude 10° 00:42:54 10° 360° (N) 3,180 6.7 -25.2°
Sets 00:46:25 0° 345° (NNW) 4,210 7.4 -25.2°
